Temp
22 21 19 18 18 17 17 17 16 16 15 14 14 13 13 14 13 13 13 12 12 12 12 12 12 12 12 12 11 11 11 11 12 11 11 12 12 13 14 16 16 17 16
22 21 19 18 17 17 17 17 16 15 14 13 13 12 13 13 13 13 13 12 12 12 12 12 12 12 12 12 11 11 11 11 11 10 10 9 11 12 14 15 17 16 16
22 20 18 17 17 17 17 16 16 15 14 13 13 12 12 12 13 13 12 12 12 12 12 12 12 12 12 11 11 11 11 10 10 10 9 8 9 10 11 12 13 15 17
23 21 18 17 17 17 17 16 15 15 14 13 13 12 12 12 12 12 12 12 12 12 12 12 12 12 11 11 11 11 11 10 10 10 9 9 8 8 9 11 12 11 15
22 21 19 18 18 17 16 16 15 15 14 14 13 12 12 12 12 12 12 12 12 12 12 12 11 11 11 11 11 11 10 10 10 9 9 7 7 8 8 9 10 11 12
22 20 21 20 18 17 16 15 15 15 14 13 13 12 12 12 12 12 12 12 12 11 11 11 11 11 11 11 10 10 10 10 10 9 8 7 6 7 8 8 9 9 10
20 19 18 18 18 17 16 15 14 14 13 13 13 12 12 12 12 12 12 11 11 11 11 11 11 11 10 10 10 10 10 9 9 9 8 6 6 6 7 8 8 9 10
19 18 18 18 17 17 16 15 14 14 13 13 13 12 12 12 12 12 11 11 11 11 11 10 10 10 10 10 10 9 9 9 9 8 7 6 5 5 6 7 7 8 9
19 18 18 18 18 17 16 15 14 14 14 13 13 13 13 12 12 12 11 11 11 11 11 11 10 10 10 10 10 9 9 9 8 7 6 5 5 5 6 6 7 8 9
19 18 18 18 18 17 16 16 15 14 14 13 13 13 13 12 12 12 11 11 11 11 11 11 10 10 10 10 9 9 9 9 8 6 5 4 4 4 5 6 7 8 8
19 18 18 18 18 18 17 16 15 15 14 14 14 13 12 12 12 11 11 11 11 11 11 10 10 10 10 10 9 9 9 8 7 6 5 4 4 4 5 6 8 8 8
18 18 17 18 18 17 17 16 16 15 14 14 13 12 12 12 11 11 11 11 11 11 10 10 10 10 10 9 9 9 9 8 7 6 5 5 5 6 6 8 9 9 9
18 17 17 17 17 17 17 16 15 15 14 14 13 12 12 12 11 11 11 11 10 10 10 10 10 10 9 9 9 9 9 8 7 5 5 6 6 7 7 8 9 9 9
19 17 16 16 18 17 16 16 15 14 14 13 13 12 12 11 11 11 11 10 10 10 10 10 10 9 9 10 10 9 8 8 7 6 6 6 6 7 8 8 9 10 10
19 18 17 16 17 17 17 16 15 15 14 13 13 12 12 11 11 11 10 10 10 10 10 9 9 9 9 9 10 9 9 8 7 7 6 6 6 7 9 10 10 10 10
20 19 17 17 16 17 16 16 15 14 14 13 12 12 12 11 11 11 10 10 10 10 9 9 9 9 9 9 9 9 9 8 8 7 6 6 6 7 8 9 11 11 10
20 18 18 17 17 17 16 15 15 14 13 13 13 12 12 11 11 11 10 10 9 9 9 9 9 9 9 9 9 9 9 9 8 7 7 6 6 7 7 9 11 12 11
19 18 16 16 17 17 16 15 15 14 13 13 12 12 11 11 11 10 10 9 9 9 8 8 8 8 8 8 9 9 9 9 8 7 6 6 6 7 8 9 11 12 12
18 17 17 17 16 16 15 14 13 13 12 12 11 11 11 11 10 9 9 9 9 8 8 8 8 8 8 9 9 9 9 8 8 7 7 6 6 7 8 9 10 11 11
17 17 17 16 15 15 14 13 12 12 12 11 11 11 11 10 9 9 9 9 8 8 8 8 8 8 8 9 9 9 9 8 8 7 7 6 6 7 8 8 10 11 12
16 17 16 15 14 14 13 12 12 11 11 11 11 11 10 10 9 9 9 9 8 8 8 8 8 8 7 7 7 8 8 8 7 7 6 6 6 7 7 9 10 11 12
14 15 14 14 14 13 13 12 12 12 11 11 11 10 10 9 9 9 9 8 8 8 8 7 7 7 6 6 6 7 7 8 6 6 6 5 6 7 9 9 10 11 13
13 14 14 13 13 13 13 12 12 12 11 11 10 10 10 9 9 9 9 8 8 8 7 7 6 5 5 5 5 6 6 6 6 6 6 6 7 7 8 9 10 11 13
13 14 13 12 12 13 12 12 12 11 11 10 10 10 9 9 9 9 8 8 8 6 6 5 5 5 5 5 5 5 5 5 5 5 5 6 7 7 8 9 9 11 12
13 13 12 12 12 12 12 12 11 11 10 10 9 9 9 9 9 8 8 8 7 6 5 5 5 4 4 5 5 5 5 5 5 6 6 6 6 6 7 8 9 9 13
13 13 13 12 12 12 12 11 11 10 10 9 9 9 9 8 8 8 8 7 7 6 6 5 5 5 5 5 5 5 5 5 5 6 6 6 6 6 6 7 8 9 12
Height
796 803 808 813 817 819 820 821 823 824 826 827 828 828 828 828 828 827 827 826 825 824 822 820 819 818 817 815 814 811 809 808 806 801 797 791 786 779 778 775 772 768 770
789 796 802 809 813 816 818 818 820 822 823 825 826 827 827 826 826 826 825 824 823 821 820 819 818 816 814 813 812 811 808 806 805 802 798 788 784 780 773 769 765 763 765
781 788 796 802 807 811 813 816 818 819 820 822 824 825 825 824 824 823 823 822 820 819 818 816 815 814 813 812 810 809 807 803 802 802 801 795 786 782 773 767 763 761 757
771 778 787 795 801 806 809 812 814 816 817 819 820 822 822 822 822 821 820 818 818 816 815 814 813 811 810 808 807 805 803 801 797 794 795 794 792 788 771 761 759 756 754
763 770 778 786 793 799 804 807 810 812 814 816 817 819 819 819 819 818 817 816 815 814 812 811 809 808 806 804 802 801 799 797 794 790 788 786 785 784 779 765 751 752 749
756 763 771 780 787 793 798 802 806 808 810 812 814 814 815 815 815 814 813 812 811 810 809 808 806 804 802 800 798 795 793 790 787 784 783 781 782 778 774 767 756 755 745
752 760 767 774 781 786 792 796 801 804 806 808 809 810 810 810 809 809 809 808 807 806 805 804 802 800 798 796 793 790 787 784 781 777 775 775 775 773 768 763 751 749 736
749 756 762 769 774 780 786 791 795 799 801 803 804 805 805 805 805 805 805 804 803 802 801 800 798 796 793 790 787 785 780 777 774 771 769 766 764 762 758 757 752 743 737
745 751 757 763 768 774 780 785 789 793 795 797 799 800 800 800 800 801 801 800 799 798 796 794 791 789 786 784 780 777 773 770 767 765 763 758 752 750 746 745 745 739 732
741 745 750 756 762 768 774 778 782 786 789 792 794 795 795 796 796 796 795 795 794 792 790 787 785 782 779 777 773 769 766 763 760 758 754 748 741 737 734 729 729 726 728
733 738 744 751 757 762 767 772 776 780 784 787 789 789 790 791 792 791 791 790 788 787 785 782 779 775 771 769 766 762 759 756 753 749 744 736 728 723 718 712 710 711 714
729 734 739 745 751 756 761 766 770 775 778 781 783 784 786 787 787 787 786 785 783 782 780 776 772 769 765 762 759 754 750 747 744 740 734 724 715 706 705 702 702 705 703
724 729 734 739 744 749 755 760 765 769 773 776 777 779 781 782 782 782 782 780 779 777 774 770 767 763 759 754 751 747 743 740 736 731 724 714 706 697 693 693 691 690 691
716 722 728 732 737 743 749 754 760 764 767 770 772 774 776 777 778 777 776 775 773 771 768 765 761 756 752 747 744 740 736 733 728 722 715 707 698 692 685 683 683 682 679
710 714 720 725 731 737 743 748 754 758 761 765 767 769 771 772 772 772 771 769 768 766 763 759 754 750 746 742 737 734 729 725 720 714 706 698 688 681 676 669 670 674 675
698 704 710 717 724 731 737 742 748 752 757 760 763 764 766 767 767 766 765 764 762 760 757 754 750 744 741 737 732 728 723 717 712 708 702 690 681 672 668 661 661 666 667
691 696 703 709 717 725 731 737 742 748 752 755 758 759 761 762 761 760 759 758 757 755 753 748 744 738 735 731 726 722 717 711 706 703 699 687 678 671 665 657 654 658 659
685 690 697 705 713 721 727 733 738 743 747 751 753 755 756 757 756 755 754 753 752 750 746 744 739 734 729 725 720 715 711 706 699 694 689 685 674 666 659 654 647 643 648
679 686 693 702 711 717 724 730 736 740 744 747 750 751 752 752 751 750 750 748 747 745 742 739 734 730 724 719 714 709 706 702 695 687 684 679 672 664 656 651 645 640 639
678 685 693 700 708 715 722 728 733 738 742 745 746 747 747 747 747 746 744 742 741 739 736 732 729 724 720 715 710 706 701 696 691 686 680 673 666 656 651 646 639 636 633
678 686 692 699 706 714 721 726 732 735 739 740 741 742 742 742 742 740 739 737 736 734 731 728 725 721 717 712 707 703 699 694 688 683 674 667 659 651 641 631 624 620 624
680 687 693 699 706 712 718 724 728 732 735 736 737 737 737 738 737 735 734 732 730 728 726 723 720 719 715 710 704 700 696 691 687 681 675 664 655 643 632 625 619 615 619
680 686 692 698 704 710 716 721 725 728 730 731 732 733 733 733 732 731 729 727 725 723 722 720 718 715 711 705 701 696 692 689 682 677 670 659 648 638 630 622 617 614 617
680 686 692 698 704 708 713 718 722 724 726 727 728 728 728 728 728 726 724 723 720 719 720 718 715 711 706 701 696 692 688 683 675 669 661 653 646 637 628 620 613 610 611
681 685 691 697 702 707 711 716 719 721 722 723 725 725 724 724 722 721 720 718 716 716 715 713 711 707 702 697 694 689 683 681 674 667 659 653 643 633 623 617 611 607 607
679 684 690 696 700 704 709 713 716 718 719 720 721 721 720 719 718 716 714 713 711 711 709 708 705 701 699 694 690 686 681 673 670 665 659 652 645 636 629 622 612 604 602
Wind_Speed
18 23 20 16 13 13 12 11 9 6 3 2 2 3 6 8 8 9 8 11 12 14 15 16 16 16 16 18 18 20 23 21 18 23 24 26 32 38 33 31 33 36 33
14 20 22 18 18 17 16 12 10 8 5 3 2 3 6 9 9 8 10 10 11 15 15 16 16 17 19 18 19 20 22 21 21 17 20 7 19 28 28 31 33 32 33
15 14 20 22 19 19 18 14 11 9 7 4 3 3 6 7 9 9 11 10 14 14 16 16 17 18 18 21 20 21 21 22 22 19 13 5 7 20 40 36 34 33 36
13 14 21 22 24 22 17 17 13 11 9 7 5 3 6 8 9 11 12 13 15 16 14 16 18 18 20 19 21 21 24 25 22 24 20 17 22 12 14 31 30 31 35
11 14 17 24 25 23 21 17 14 13 11 8 5 6 7 8 10 11 13 15 15 14 17 18 19 20 21 22 22 23 25 28 28 25 21 19 22 26 17 14 20 26 33
12 11 21 23 25 24 23 20 18 14 12 8 8 9 9 10 10 12 15 14 15 17 18 19 20 21 24 25 24 28 27 28 29 28 26 21 14 22 20 12 16 15 35
11 10 12 18 23 25 24 21 17 16 12 12 11 9 11 12 12 13 14 14 17 18 19 20 22 25 22 27 28 27 29 30 30 31 27 23 22 30 30 24 18 12 30
10 10 12 19 23 26 24 23 20 21 17 14 11 11 11 12 13 13 14 17 18 20 21 25 21 25 29 27 27 29 30 32 31 30 26 30 33 32 31 24 22 13 12
11 13 14 21 23 26 26 25 24 21 19 16 14 12 10 11 13 14 16 19 19 22 22 23 27 27 25 27 28 29 32 32 23 24 30 33 35 34 31 33 33 24 9
12 13 13 21 23 25 26 27 24 23 21 18 15 12 10 12 15 17 18 18 23 25 23 26 25 29 28 26 29 31 28 25 27 31 33 35 37 35 35 36 37 32 22
13 13 12 20 24 23 24 24 24 23 19 17 16 11 11 14 16 17 20 22 23 24 25 27 28 29 28 29 27 29 31 32 31 32 34 40 42 40 36 37 29 22 24
9 10 11 19 22 24 23 24 22 20 20 18 14 12 13 14 16 19 20 22 23 24 27 28 29 30 28 28 30 32 32 27 28 35 37 43 43 36 35 28 28 28 26
10 9 9 11 18 22 24 22 22 21 20 17 14 13 14 14 16 19 21 22 23 26 28 29 27 30 32 32 32 31 30 29 30 32 40 34 37 32 27 25 25 26 33
14 11 9 9 18 22 24 24 23 23 21 17 15 15 14 15 18 20 21 23 23 25 26 28 29 30 33 30 31 32 27 30 31 32 36 40 36 31 24 26 28 29 20
14 13 12 10 15 21 24 25 24 23 18 15 14 15 15 16 18 20 22 24 24 24 26 30 30 28 30 28 26 29 30 33 30 30 35 37 37 42 30 28 25 26 21
16 16 13 12 12 19 23 23 22 20 16 15 15 16 15 15 18 21 23 22 24 23 26 27 28 29 28 27 30 31 33 32 30 27 35 39 38 37 38 32 28 27 26
11 14 15 13 17 21 25 24 22 19 17 17 15 11 14 15 18 19 19 21 22 25 26 27 26 28 30 28 30 31 31 32 31 28 31 36 36 35 33 28 19 31 29
8 9 10 14 21 23 21 20 20 18 15 12 11 12 13 15 16 16 19 22 24 24 25 27 27 27 29 28 29 31 31 28 32 33 33 29 38 39 36 32 23 18 27
7 8 19 21 23 22 21 19 16 13 11 10 12 13 13 12 14 17 21 23 24 25 26 25 26 28 29 28 29 28 28 27 32 33 29 33 35 36 35 34 27 22 24
12 13 22 23 24 21 20 18 14 12 11 12 14 13 10 13 15 19 22 23 23 24 25 25 24 26 25 25 27 27 26 26 27 24 29 30 34 38 38 38 28 22 25
14 21 23 19 23 23 20 18 16 15 14 15 11 10 11 13 16 21 21 22 21 23 26 22 25 21 22 29 30 29 29 26 20 26 29 34 38 42 44 36 25 19 24
13 20 18 20 21 23 20 16 16 14 13 12 11 12 12 16 17 20 22 20 23 21 21 22 18 23 25 24 28 28 27 27 29 28 30 34 41 47 36 29 22 12 25
14 20 20 19 19 19 19 16 14 12 10 9 10 13 15 16 18 20 21 21 18 18 17 17 17 22 24 24 25 26 27 31 31 30 32 38 38 36 31 28 22 11 24
12 18 19 15 16 18 17 15 12 9 9 10 12 13 14 17 19 18 18 20 19 10 14 16 19 23 25 25 23 25 28 29 32 33 34 33 32 30 27 25 21 10 18
16 19 16 15 17 17 14 13 9 7 8 9 12 14 15 16 16 17 18 20 13 9 18 21 21 22 23 22 28 30 30 30 33 37 28 24 28 30 29 28 27 22 18
17 17 17 16 14 13 11 8 8 8 8 10 12 13 15 16 15 17 20 19 14 20 24 24 23 23 25 24 27 28 29 35 35 29 17 20 24 26 25 25 25 22 12
Wind_Direction
193 189 190 194 200 202 205 197 190 184 187 173 318 326 326 322 318 319 315 328 323 326 327 327 328 329 328 329 331 327 324 320 320 321 324 315 306 299 295 285 261 248 240
191 179 177 192 206 208 212 199 201 189 191 186 269 295 308 308 307 309 315 310 313 320 320 319 322 328 325 324 320 315 315 312 313 326 321 318 311 301 298 290 266 256 240
198 181 175 194 206 215 208 200 203 187 198 194 235 284 303 315 313 314 308 306 313 314 314 315 319 318 318 319 315 315 311 311 309 304 297 309 303 318 302 299 299 271 243
199 186 178 190 200 211 214 207 205 205 201 206 218 264 297 296 303 302 307 311 312 309 308 311 309 311 310 309 311 308 303 301 297 300 287 285 292 299 299 295 290 298 259
199 187 177 185 197 202 208 205 208 209 210 208 231 247 261 275 285 296 304 304 308 309 308 307 308 309 306 306 300 303 301 295 292 290 299 298 299 294 279 288 295 299 295
194 180 186 190 193 200 205 201 207 210 208 211 233 246 256 268 283 290 293 302 305 309 307 304 304 305 305 301 300 301 297 296 289 292 289 278 289 294 286 276 281 286 279
180 174 176 188 189 195 202 198 205 216 212 223 229 249 261 261 268 281 292 300 305 303 302 303 304 302 303 304 303 299 300 296 289 286 279 276 282 288 278 276 278 278 281
171 183 186 190 191 197 198 196 206 211 214 222 234 248 259 265 266 274 282 293 295 299 297 299 298 303 301 296 298 298 296 293 288 291 286 291 289 281 266 268 280 272 276
176 183 187 195 194 194 200 204 205 214 214 220 236 242 260 270 277 281 284 287 293 294 291 293 296 296 295 295 295 294 295 295 298 303 297 287 288 278 273 271 259 250 257
179 186 190 192 198 198 202 206 207 212 217 222 231 244 253 270 278 283 285 289 293 288 290 296 296 297 295 295 296 293 295 292 299 306 297 291 288 284 276 266 258 227 233
186 188 188 192 197 199 201 202 206 208 212 220 231 235 258 267 275 283 288 289 289 296 298 301 300 297 295 295 294 295 294 294 295 301 297 294 288 277 272 265 250 240 240
189 185 182 185 187 196 201 201 201 206 214 223 228 241 256 269 278 283 288 293 294 301 302 301 299 298 296 298 293 291 292 292 300 302 301 292 290 277 261 263 238 240 244
177 179 178 187 189 191 198 198 198 207 215 222 225 239 258 271 280 286 288 293 298 298 298 298 301 301 297 294 291 291 290 295 299 292 306 302 303 295 264 260 257 256 252
177 182 187 192 190 193 192 195 203 210 214 219 229 242 259 270 278 283 289 293 294 296 299 304 301 298 296 295 296 293 292 299 298 293 308 306 299 300 282 262 252 248 206
182 187 188 188 188 189 193 195 201 206 206 211 229 243 257 267 277 284 289 291 293 298 303 303 299 300 301 297 298 299 304 302 296 301 312 308 307 313 307 293 235 229 216
187 190 185 180 191 187 190 192 200 199 209 218 236 249 258 270 277 283 286 294 302 306 306 301 305 303 306 303 303 304 302 303 303 306 316 311 312 317 321 302 237 218 212
186 183 185 184 184 191 185 191 196 196 210 224 237 256 268 272 281 285 297 303 310 311 306 304 306 306 303 305 304 304 305 304 308 304 309 309 314 314 313 311 286 224 220
182 168 166 166 180 189 186 185 188 194 208 227 248 260 268 278 286 301 304 308 308 306 306 306 304 305 305 304 307 308 305 308 308 308 304 305 313 314 320 321 288 275 234
165 153 159 166 175 177 176 182 185 199 219 237 253 260 270 286 302 305 306 306 305 306 305 304 305 304 303 306 307 307 310 310 307 307 310 312 308 310 311 310 305 281 228
135 140 157 163 163 166 172 173 181 201 220 237 250 257 277 291 295 297 299 300 303 306 305 304 306 306 308 318 316 312 309 310 305 310 314 310 312 310 311 307 297 282 212
135 148 154 154 159 168 173 174 192 207 225 239 248 267 277 289 293 295 298 302 306 308 304 310 312 313 328 318 317 320 320 313 322 323 317 312 313 312 312 310 302 300 198
138 146 144 151 160 167 174 185 199 214 232 239 248 265 280 287 286 293 298 303 306 302 305 310 313 316 312 308 313 314 311 320 327 318 313 309 312 315 318 320 318 303 194
144 149 151 153 160 172 184 191 205 217 232 242 262 276 279 283 290 292 298 300 309 307 319 316 323 315 310 310 311 315 317 319 318 314 311 314 317 324 325 324 323 282 192
149 154 154 155 167 180 188 201 215 228 238 254 269 281 287 288 289 289 297 301 298 326 327 319 311 307 306 306 312 315 316 317 316 314 315 316 323 325 324 329 333 295 208
155 161 160 168 175 181 190 200 209 226 248 270 281 284 287 293 294 297 296 298 290 321 317 302 295 299 301 304 311 311 312 314 310 314 315 328 330 332 333 334 338 337 208
155 158 167 170 172 178 185 202 218 225 244 265 278 288 290 294 298 300 298 290 301 313 303 296 292 297 299 302 309 312 312 310 311 315 326 329 331 328 326 327 326 329 250